Location: Newark
(63.1158°N, 8.1461°E)
Time: 20:17:13
(UTC+00:00)

Envisat - Pass Details

Date: 17 December 2019
Orbit: 764 x 766 km, 98.1° (Epoch: 18 January)

Event Time Altitude Azimuth Distance (km) Brightness Sun altitude
Rises 15:02:34 0° 115° (ESE) 3,236 6.0 -6.6°
Reaches altitude 10° 15:05:08 10° 105° (ESE) 2,312 5.2 -6.8°
Maximum altitude 15:09:25 28° 47° (NE) 1,409 3.8 -7.1°
Drops below altitude 10° 15:13:44 10° 350° (N) 2,320 5.2 -7.5°
Sets 15:16:18 0° 339° (NNW) 3,250 6.1 -7.8°
